Theta_e
318 318 319 321 322 326 326 325 320 318 318 310 311 314 315 319 319 318 318 318 319 319 318 317 317 319 322 321 322 321 321 323 326 323 327 337 337 339 341 340 341 341 343 342 341 340 339 338 337 338 339 341 340 340 339 339 339 339 339 338 339 338 339 339 338 338 338 339 335 331 329 326 322 320 319 317 316 319 325 328 331 332 332 332 332 331 331 331 332 334 333 332 332 332 330 326 324
319 321 322 322 324 327 325 324 318 314 313 308 311 315 316 318 318 318 318 320 322 321 318 318 318 320 321 320 320 320 324 325 327 329 331 334 336 340 339 339 340 342 343 342 341 341 341 339 337 337 336 339 339 340 340 340 339 339 339 339 340 338 339 338 338 338 338 338 335 331 329 326 323 322 319 317 316 317 324 329 331 332 332 331 331 331 331 333 333 333 333 333 332 331 328 325 323
319 322 324 324 325 325 324 323 316 310 310 308 310 316 317 317 318 319 320 321 321 320 319 319 319 320 320 320 321 319 325 327 328 330 330 334 337 338 338 339 340 342 342 342 341 341 342 339 337 336 335 338 339 340 340 339 339 339 340 339 339 339 338 338 338 337 337 337 334 330 328 327 324 323 320 317 316 317 321 328 331 331 331 331 330 330 332 333 334 333 333 333 331 329 326 325 323
319 322 324 327 326 323 324 322 317 311 308 308 310 315 318 317 318 319 321 320 319 319 319 320 320 320 320 321 321 318 324 328 331 329 328 335 338 337 337 339 340 341 342 343 342 343 342 339 338 336 335 338 339 339 340 339 339 339 340 339 339 338 337 337 338 337 337 337 334 330 328 328 326 325 321 316 314 315 319 325 330 331 331 331 331 332 333 332 332 332 333 332 330 328 325 323 322
320 323 323 326 328 323 324 320 318 314 310 311 311 315 318 317 318 319 321 319 318 319 318 320 321 320 320 321 321 321 325 327 331 331 332 337 337 337 336 338 341 341 342 342 342 344 341 338 338 335 334 336 338 338 338 338 338 339 339 339 338 338 337 337 337 337 336 336 335 331 329 328 326 325 321 315 312 312 317 324 329 331 330 330 331 333 333 332 332 332 332 330 329 326 323 322 321
322 325 322 325 326 323 322 317 314 313 314 316 314 315 317 317 318 319 320 318 318 318 318 319 320 319 320 322 322 325 327 326 329 332 336 338 336 336 336 337 340 341 341 342 342 344 340 338 338 335 333 335 337 337 336 337 338 339 339 338 338 337 337 337 337 336 336 336 335 332 329 328 327 326 320 314 310 310 316 323 328 330 329 329 330 332 333 332 333 332 331 328 326 324 321 321 322
323 325 323 323 322 323 321 314 313 314 316 318 316 316 317 317 318 318 319 318 317 317 317 317 318 319 321 322 322 326 327 329 332 333 336 336 335 336 336 337 340 341 341 342 342 343 340 337 337 335 333 334 335 335 335 336 337 338 338 338 337 338 337 337 337 336 336 336 334 332 330 329 327 326 320 314 309 309 313 318 325 330 329 329 329 330 331 331 331 330 328 326 323 322 321 322 323
322 324 324 323 322 322 319 315 315 317 316 316 317 317 317 318 318 318 319 318 318 317 317 317 318 319 319 320 322 326 325 329 331 331 334 335 335 336 336 338 340 341 342 342 343 342 339 337 338 337 336 334 334 334 333 334 336 337 337 337 337 337 337 336 336 336 335 335 334 332 331 329 328 326 321 316 310 309 310 313 322 328 329 328 328 328 328 329 329 327 325 324 324 323 323 324 323
322 322 322 323 321 319 317 316 316 318 317 316 316 317 318 318 318 318 318 318 318 317 317 317 318 318 318 318 322 325 324 327 328 329 333 335 335 336 336 338 339 341 342 342 343 342 339 337 338 338 337 336 334 334 333 333 336 336 336 336 336 337 337 336 335 335 335 335 335 332 331 330 329 326 323 319 312 309 309 312 320 326 328 328 327 327 327 326 326 325 325 325 325 324 324 323 323
321 321 321 322 319 315 312 315 316 318 317 316 316 316 317 317 317 318 317 317 316 316 318 318 318 318 317 317 320 322 323 325 328 331 332 334 336 336 337 338 339 341 342 342 342 343 340 337 338 338 338 336 336 335 333 333 334 335 334 334 336 336 336 336 335 335 335 335 335 333 332 331 330 327 324 321 314 310 309 311 319 325 326 326 326 326 325 325 325 325 324 324 323 323 323 323 323
321 320 322 320 315 311 310 313 316 318 317 316 316 316 317 317 317 317 317 317 316 316 318 317 317 318 316 317 320 320 321 323 329 334 332 334 336 336 337 338 340 341 342 342 343 343 341 338 337 338 338 337 337 337 335 332 332 333 333 332 334 336 335 335 334 334 334 335 335 334 332 332 331 328 325 322 318 313 310 310 315 321 323 323 324 324 324 323 323 322 322 321 321 321 322 322 322
322 320 321 317 314 313 313 315 316 318 318 316 316 316 316 316 316 316 316 316 315 316 317 317 317 317 316 317 319 319 320 324 332 335 333 334 335 336 338 338 340 341 342 342 342 343 342 340 339 338 338 338 337 337 336 333 331 332 333 332 333 335 334 334 334 334 334 334 335 334 333 332 331 329 326 324 321 317 313 311 312 316 319 319 320 321 321 321 319 318 318 317 317 317 318 320 322
323 322 320 316 318 318 316 316 317 319 317 317 316 316 316 315 316 315 316 315 315 315 316 317 317 316 317 317 319 319 320 327 334 333 332 334 335 336 337 338 340 341 341 342 342 342 342 341 340 339 338 338 337 338 336 334 332 332 332 331 332 334 334 334 334 333 334 335 335 334 333 332 331 329 327 325 323 320 317 314 312 312 313 312 313 315 316 315 312 311 310 308 307 307 311 315 319
323 323 321 318 320 319 317 317 317 316 315 318 316 315 316 316 316 315 316 315 315 316 316 316 316 316 316 317 318 317 321 331 333 330 332 335 334 335 337 338 339 341 341 341 342 342 342 341 341 340 339 338 337 339 337 335 334 332 332 331 332 333 334 334 333 334 334 335 335 334 333 332 331 329 328 325 324 322 320 317 314 311 308 306 305 307 308 307 306 304 302 301 300 301 305 311 316
323 322 321 320 319 317 317 318 318 315 315 318 315 315 316 315 315 315 315 315 316 316 315 315 316 316 316 316 319 321 326 332 331 329 333 334 333 335 336 337 338 341 341 340 341 341 342 341 341 340 340 339 338 339 338 336 335 333 331 330 332 333 333 334 334 334 334 335 335 334 332 331 330 328 327 325 324 323 321 320 317 313 309 305 303 302 302 302 301 299 299 299 299 299 301 306 311
322 322 321 318 315 315 316 319 319 315 316 317 314 315 315 315 314 314 314 314 316 315 315 315 315 315 316 317 320 326 331 331 331 330 333 333 333 335 336 336 337 339 340 339 340 340 341 340 340 340 340 340 339 339 338 337 335 335 332 330 332 332 334 334 334 334 334 335 334 334 332 331 329 328 327 325 324 323 322 321 318 315 311 307 304 301 300 299 298 298 299 300 300 300 300 303 307
321 322 319 315 315 316 317 318 317 315 317 317 314 314 315 315 314 314 313 313 314 316 315 315 316 315 317 317 317 326 330 329 330 331 333 333 333 334 335 336 335 336 337 337 338 339 339 340 339 340 340 340 339 339 339 338 336 335 334 332 332 333 334 334 334 334 334 334 334 333 331 330 329 328 327 324 323 322 322 321 318 315 312 308 304 301 300 299 300 302 303 303 302 301 302 304 306
320 320 316 314 316 317 318 318 317 317 318 316 314 315 316 316 314 314 314 314 314 315 315 315 316 315 317 317 317 325 327 328 331 332 332 333 334 334 335 335 335 334 335 335 336 337 338 340 339 339 339 339 339 339 339 339 337 336 335 333 331 332 334 334 334 334 333 334 333 332 330 329 329 328 326 323 322 322 321 320 317 315 313 309 304 302 302 304 307 309 310 309 307 304 304 306 309
319 319 316 316 318 318 318 318 317 318 318 316 315 315 316 316 315 315 314 315 315 315 316 315 316 315 317 317 317 323 326 329 331 332 332 333 334 334 335 335 335 335 334 334 334 335 336 338 338 338 338 338 339 339 339 339 338 337 337 335 332 332 333 334 333 333 333 333 333 332 330 330 329 328 325 323 322 323 322 321 318 315 313 309 306 306 307 310 312 313 313 313 311 308 306 307 309
318 318 317 316 319 317 317 317 316 316 317 317 316 315 315 316 316 315 314 316 316 316 316 315 316 316 317 317 317 322 326 328 330 331 332 333 334 334 335 335 335 336 335 333 333 334 334 336 336 337 337 337 338 338 339 339 339 338 337 337 334 332 332 333 333 333 333 333 333 333 331 331 329 328 326 324 323 323 323 322 318 314 311 309 309 310 312 313 314 314 314 314 312 309 307 307 308
317 315 316 316 316 316 316 316 316 315 316 317 316 314 315 315 315 315 315 315 316 316 316 316 317 316 318 318 318 322 325 327 329 331 332 333 334 333 334 335 335 335 334 333 333 332 333 334 334 335 336 336 337 337 338 338 338 338 338 338 336 334 333 332 333 333 333 333 333 333 333 331 329 328 326 324 324 324 324 322 316 312 311 310 311 312 313 313 313 313 313 313 312 310 307 307 307
316 314 315 316 315 317 315 314 314 313 315 316 316 315 315 315 314 315 316 315 316 316 316 317 317 317 319 319 319 322 324 326 328 330 331 332 333 333 334 334 334 334 333 333 332 331 331 332 333 334 334 335 337 337 337 337 338 338 338 338 337 336 334 332 332 333 333 332 332 333 333 331 329 328 326 324 324 324 324 321 315 312 311 312 313 313 313 312 313 312 311 310 310 309 308 307 307
316 315 315 315 315 316 315 313 312 312 315 316 315 315 315 315 315 315 315 315 316 316 316 317 317 317 320 321 320 322 324 325 327 328 329 331 332 332 333 334 334 334 333 332 331 331 330 330 331 332 333 334 336 336 335 335 336 338 338 338 337 337 335 334 333 333 334 333 332 333 333 331 329 328 327 325 324 324 323 320 316 313 313 314 314 313 313 312 312 312 310 308 308 308 307 306 306
316 316 315 314 314 315 314 313 312 312 314 315 315 315 315 315 315 316 315 315 316 316 317 317 316 316 318 321 321 322 324 325 326 326 328 330 331 331 332 333 333 333 332 331 332 330 328 329 332 333 332 333 334 334 334 333 334 337 338 338 337 337 336 335 334 333 334 334 333 333 333 331 330 328 327 326 324 323 323 320 317 315 314 315 314 314 313 312 313 311 308 306 306 307 306 305 305
316 316 315 314 314 315 313 313 312 312 313 313 313 314 315 316 315 314 315 315 316 316 316 315 315 315 315 319 321 321 322 324 325 326 327 328 330 330 331 332 333 333 331 331 331 329 328 329 331 333 332 332 333 333 333 333 333 334 336 337 337 337 336 336 335 334 334 334 333 333 332 332 330 329 328 327 324 323 322 319 317 317 317 316 315 315 315 313 312 309 305 304 305 305 304 303 303
316 316 315 315 315 315 313 313 313 313 314 313 314 315 315 314 314 314 316 316 316 316 316 315 315 315 314 316 319 320 320 323 325 326 327 327 329 331 331 332 332 332 331 331 330 329 329 328 329 331 331 331 331 332 332 333 333 333 333 333 335 336 335 335 335 334 334 334 333 332 332 332 331 330 329 327 325 324 323 322 320 319 318 316 316 316 315 313 311 306 303 303 304 303 302 301 301
315 316 315 316 316 315 314 315 314 313 314 313 314 316 315 313 314 316 317 317 316 316 316 316 316 315 315 315 316 319 320 322 324 325 326 327 328 329 331 332 331 330 330 331 330 329 329 327 328 329 328 329 329 331 331 332 333 333 333 332 334 336 336 336 335 334 334 333 332 331 332 332 332 331 329 327 326 325 325 324 322 319 318 316 316 316 313 312 310 305 301 302 301 300 299 299 299
315 315 316 315 315 315 315 316 315 315 315 314 314 316 315 314 314 316 318 316 316 316 316 316 316 316 316 316 316 318 320 321 324 324 325 326 327 327 329 331 330 329 329 330 330 329 328 326 327 328 327 327 328 329 330 331 332 333 334 334 335 336 336 336 335 335 334 333 333 332 332 332 332 331 330 328 327 326 325 324 321 318 317 317 316 315 313 312 309 304 301 300 299 298 297 296 295
315 315 317 317 316 316 316 316 315 315 316 314 315 315 315 316 315 316 318 316 316 316 316 317 317 317 316 317 316 317 319 320 323 325 325 325 325 324 326 328 328 328 329 329 329 328 327 326 326 327 326 326 326 327 328 328 330 331 333 333 334 335 336 336 335 335 333 333 333 332 332 331 331 331 330 328 328 327 325 323 320 318 318 317 316 315 314 312 308 303 301 299 298 297 296 294 293
315 316 317 317 317 317 316 316 315 315 315 314 314 314 315 318 317 317 318 316 316 316 317 317 317 317 317 318 317 317 318 319 321 323 324 324 324 324 324 325 326 327 327 327 327 326 325 325 325 326 325 325 325 325 325 325 327 330 332 332 332 333 334 335 335 334 333 333 333 333 333 331 330 330 330 329 328 326 324 321 320 319 318 316 315 314 314 311 305 302 300 299 297 296 295 294 293
317 317 316 317 315 315 317 315 315 316 314 313 315 313 315 318 318 318 317 315 316 316 317 317 317 318 317 318 318 317 318 319 319 320 322 322 323 324 324 324 325 326 326 325 325 324 323 323 324 325 324 324 323 323 324 325 326 328 330 331 330 330 332 334 334 333 333 332 332 332 333 332 331 330 329 329 327 326 324 321 320 319 318 316 315 314 313 309 304 301 299 298 296 295 295 294 293
317 314 313 317 315 314 318 315 315 317 314 314 315 314 315 318 318 317 315 314 315 315 317 317 317 317 317 318 318 318 317 319 319 319 319 320 322 324 323 323 323 324 324 323 322 322 322 321 321 322 322 322 322 321 322 323 326 327 328 329 328 328 329 331 332 333 332 331 331 331 331 332 331 330 329 328 327 326 324 321 319 318 317 316 314 312 311 307 302 299 298 297 296 295 294 294 293
317 314 312 317 316 313 316 315 314 316 315 315 315 314 316 317 318 316 314 314 315 315 317 317 318 318 318 318 317 318 318 318 319 319 319 319 321 322 322 323 322 322 322 321 321 321 320 320 319 319 319 319 318 319 319 320 324 326 327 327 327 326 326 328 330 331 331 330 330 330 331 331 331 330 329 327 327 326 324 322 320 319 317 316 313 310 307 303 300 299 297 297 296 295 293 293 292
315 316 313 315 316 313 313 314 315 314 314 316 316 315 316 317 317 317 316 316 316 316 317 317 317 318 318 318 317 317 317 318 319 319 319 318 319 319 319 321 321 321 321 321 320 320 320 319 318 318 317 317 317 318 318 318 321 323 324 325 325 324 324 325 328 329 331 330 329 330 330 330 330 329 328 326 327 326 324 323 321 319 316 315 313 309 305 302 301 301 298 296 296 294 293 292 291
314 315 313 312 315 313 312 314 315 314 315 315 316 316 316 317 317 317 317 317 317 317 317 317 317 317 317 318 318 318 318 318 319 320 319 318 318 318 318 319 319 320 320 320 320 319 319 318 318 317 316 317 317 317 317 317 319 320 321 322 322 322 323 324 326 328 329 329 329 329 329 329 330 329 326 325 326 326 324 323 321 318 317 316 314 310 307 304 303 302 299 296 295 294 293 292 291
314 315 314 312 313 313 314 315 314 314 315 315 316 315 316 317 316 317 317 317 317 318 318 318 317 317 317 317 317 318 318 318 318 319 319 318 318 317 317 317 318 319 319 318 318 318 318 318 317 317 316 316 317 316 316 316 317 318 319 320 321 321 323 324 325 327 327 327 327 328 327 327 328 328 326 326 326 326 325 323 321 318 317 317 315 312 310 307 305 302 298 295 294 294 293 292 291
314 315 314 314 313 313 315 317 313 314 315 315 316 316 316 317 317 317 317 317 317 317 317 318 318 318 318 318 318 319 319 319 320 320 319 319 317 317 316 316 317 318 318 317 317 317 317 317 317 316 315 315 316 315 315 315 316 318 319 320 320 320 322 323 323 325 326 326 326 326 326 326 326 326 327 326 325 326 325 323 320 317 317 317 316 315 312 309 306 302 297 295 294 294 292 292 292
315 314 314 314 314 315 316 317 314 314 314 315 316 316 316 317 317 317 317 317 317 317 318 318 318 318 319 319 319 320 319 322 322 320 319 318 317 316 316 316 317 317 317 316 316 316 316 316 316 316 314 315 315 315 315 315 317 319 319 320 319 319 321 322 322 324 324 325 326 326 326 326 327 327 327 326 324 324 324 323 320 318 318 317 315 313 310 308 306 302 298 295 294 294 293 292 292
315 315 315 315 316 316 316 318 315 314 314 316 316 316 316 317 317 317 318 317 318 318 318 318 319 319 319 319 320 320 320 323 322 318 318 317 317 316 315 316 316 317 317 316 316 315 316 316 316 315 314 314 314 315 315 315 316 319 319 319 317 318 320 321 321 322 324 325 326 325 325 326 327 327 327 325 324 324 324 323 321 319 317 316 314 310 308 307 305 302 300 297 295 294 294 293 294
317 316 315 315 318 317 313 315 317 315 315 315 316 317 317 318 317 317 318 317 318 319 318 319 320 320 320 321 321 321 320 322 321 319 317 316 316 316 315 315 315 316 317 316 315 315 315 315 315 315 314 313 314 314 315 315 316 317 317 318 318 318 319 320 321 322 323 325 325 325 324 325 326 325 326 326 325 324 324 323 321 319 317 315 314 311 309 308 305 302 299 297 295 295 294 294 295
317 318 316 315 318 317 314 316 318 316 316 316 317 317 316 319 320 320 320 320 319 320 319 320 321 321 321 321 322 322 321 321 321 320 317 316 316 315 315 315 315 316 316 316 315 315 315 315 315 315 314 313 313 314 314 315 316 316 316 317 317 318 318 319 320 320 321 322 322 323 323 323 323 324 325 324 324 324 323 322 321 320 318 315 313 312 312 310 306 302 299 297 296 296 296 295 295
315 319 319 316 316 317 316 319 319 315 315 317 318 316 315 318 321 321 321 321 320 320 321 320 321 321 321 321 321 322 321 321 320 319 318 317 316 315 314 314 315 316 316 316 315 315 315 314 314 314 313 312 313 313 314 314 315 316 316 316 315 315 315 316 317 319 320 321 321 323 322 321 321 322 323 322 323 323 321 321 320 319 318 315 312 313 314 310 306 302 300 299 297 297 298 296 296
313 318 320 318 318 318 318 320 318 314 314 318 319 317 316 317 317 319 319 319 319 319 320 321 320 321 321 321 321 321 321 321 320 319 317 317 316 315 315 314 314 315 315 316 315 315 315 314 314 313 312 312 312 312 314 314 314 315 316 316 316 315 314 314 316 318 320 321 322 322 321 320 321 321 321 322 322 322 321 320 319 318 318 316 313 313 313 309 305 302 302 301 298 298 298 297 297
316 320 320 319 318 319 320 320 318 316 318 320 319 319 319 316 317 319 319 319 319 319 319 320 320 320 320 321 322 322 322 321 320 319 317 316 316 315 314 314 314 315 315 316 315 314 314 314 314 313 312 312 311 312 313 314 314 314 315 315 316 316 316 315 316 317 319 320 321 321 321 321 321 321 320 320 320 320 320 318 318 317 316 315 312 311 311 308 305 302 302 301 298 298 299 298 298
319 319 319 319 319 320 321 320 319 320 321 320 320 320 317 315 317 318 319 318 318 319 319 319 320 320 321 322 323 322 321 320 319 318 317 316 316 315 314 314 314 314 315 315 315 314 314 313 313 313 312 311 310 311 313 314 314 314 314 314 314 315 315 315 316 317 317 319 320 319 320 319 320 320 319 320 319 318 319 318 317 316 315 314 312 311 311 309 307 306 304 301 299 299 300 299 299
318 317 318 319 319 320 320 320 319 320 322 320 321 321 314 312 315 318 320 319 318 319 318 319 319 320 323 324 323 322 320 319 317 316 315 315 315 314 313 313 313 314 315 315 314 313 313 313 313 312 312 311 310 310 313 315 314 313 314 314 313 313 313 313 314 314 315 317 317 315 316 316 317 318 318 319 319 318 318 317 316 315 315 315 313 311 311 309 308 309 307 303 300 300 300 300 300
317 318 320 320 320 320 320 320 319 319 319 318 320 320 313 312 315 317 320 320 318 319 317 318 319 319 323 325 324 322 319 318 317 314 314 314 314 313 313 313 313 314 314 314 314 313 313 313 312 312 312 311 309 309 312 314 313 313 314 313 313 313 312 311 312 312 312 311 310 311 313 313 312 315 317 318 318 317 317 317 316 315 314 314 313 312 313 312 310 309 307 303 301 300 300 300 300
319 320 319 319 320 321 319 320 321 319 317 317 320 321 317 316 316 316 319 320 318 318 316 317 319 318 322 325 323 320 318 316 315 314 313 312 312 312 312 312 313 314 314 314 313 312 312 312 312 312 311 311 309 308 311 313 313 313 313 312 313 313 312 312 313 313 312 310 308 309 311 309 309 312 317 318 317 317 316 315 315 314 312 312 314 314 314 313 311 309 306 303 301 300 300 300 300
319 319 319 318 316 318 319 321 323 320 317 318 319 320 320 318 317 317 319 320 319 318 318 319 320 319 320 324 323 320 317 315 314 314 313 312 311 312 312 312 312 313 314 313 313 312 312 311 311 311 310 311 309 307 310 312 311 311 311 312 313 313 312 313 314 314 314 314 313 312 312 311 311 314 318 318 317 317 316 315 314 312 312 313 314 314 313 312 309 307 305 302 300 300 299 299 299
318 319 319 318 314 315 319 319 319 318 317 317 317 319 320 317 317 319 319 319 319 318 318 320 322 321 321 322 323 321 319 316 316 315 314 313 312 312 312 311 312 313 313 313 312 312 311 311 311 310 310 310 308 307 309 310 310 311 311 312 313 312 312 313 312 312 315 317 316 316 316 317 317 317 318 317 317 317 315 315 315 315 315 315 314 312 311 310 308 305 303 301 300 299 299 299 298
317 319 319 317 314 314 316 316 315 316 316 316 316 318 317 315 315 319 319 319 320 319 319 320 321 322 323 323 323 322 320 318 317 316 315 315 314 313 312 311 312 313 313 313 312 311 311 311 310 310 310 309 308 307 309 310 310 311 312 311 311 311 312 312 310 310 314 316 317 318 318 318 318 318 317 317 317 315 314 314 314 313 313 312 312 310 309 308 305 303 302 300 300 300 299 299 298
317 319 320 320 317 314 314 316 316 315 316 317 317 316 316 315 317 318 318 319 319 319 320 320 320 321 321 322 322 322 320 319 318 317 316 316 315 314 313 311 312 312 313 313 312 311 310 310 310 310 309 310 308 306 307 309 310 310 310 310 310 310 310 311 309 309 311 312 316 318 317 317 317 317 317 316 315 314 312 310 308 307 308 307 307 307 306 305 304 302 301 300 300 299 299 299 298
317 319 321 320 320 317 315 317 316 315 316 316 316 316 315 315 317 318 318 318 318 319 319 319 319 320 320 322 325 324 324 323 320 317 317 316 314 313 312 312 312 312 313 313 311 311 310 310 310 310 309 309 308 305 306 308 308 308 308 309 309 308 308 309 310 310 310 309 312 315 314 314 314 314 316 315 315 313 308 305 303 303 304 303 303 303 303 303 302 301 300 300 299 299 299 298 296
318 319 319 318 318 318 316 317 317 317 318 317 316 317 316 314 317 319 319 318 318 318 318 318 319 320 320 322 325 325 325 326 322 317 316 315 314 313 312 311 312 312 313 312 311 311 310 310 310 309 309 309 308 305 305 306 306 306 307 308 308 307 308 310 310 311 310 309 309 309 308 308 308 310 313 313 312 310 305 303 304 303 302 301 300 301 301 301 300 300 299 299 299 298 298 295 293
318 318 318 318 318 318 316 317 318 318 319 320 318 317 316 315 316 317 318 319 318 318 318 319 318 319 320 321 323 323 323 325 323 318 315 313 312 312 311 311 311 312 312 312 311 311 310 310 309 309 309 309 308 306 304 305 305 305 306 307 307 306 307 310 310 310 310 309 309 308 306 305 305 307 310 310 311 309 306 305 304 301 300 299 299 300 300 300 300 299 299 298 298 297 294 291 289
316 316 318 318 318 318 318 318 317 316 318 319 318 317 316 317 317 317 318 318 318 318 318 320 319 320 321 321 322 323 323 325 324 319 314 312 311 311 310 310 310 311 311 312 311 310 310 310 309 309 309 309 308 307 304 304 305 305 305 306 306 306 307 309 308 308 308 308 309 309 306 304 305 307 309 309 310 310 308 306 303 299 298 298 299 299 299 299 299 298 299 298 295 292 290 289 288
316 315 317 318 318 317 318 319 317 317 318 317 318 319 316 316 318 319 318 318 319 318 319 320 321 321 322 322 324 326 326 325 323 318 313 311 311 310 309 309 309 310 311 311 311 310 310 309 309 309 308 308 308 307 305 304 304 304 304 305 305 306 307 306 305 306 307 308 308 308 306 303 303 307 309 309 309 309 307 304 300 297 297 298 298 299 298 298 298 298 296 294 291 289 288 288 288
318 316 317 318 318 318 319 320 319 318 319 318 318 319 317 316 318 318 318 318 318 319 319 319 321 321 322 324 326 326 326 323 319 315 312 311 310 309 308 308 309 309 310 311 310 310 310 309 309 308 308 308 308 307 306 303 303 303 304 304 305 305 304 304 303 304 306 306 306 305 304 302 302 305 307 307 308 308 304 300 297 296 296 296 297 298 298 297 296 294 292 290 288 288 288 288 287
Wind_Speed
5 3 3 3 4 6 6 4 2 1 1 3 4 2 4 4 2 4 5 4 3 4 3 2 1 2 1 4 6 5 5 6 7 4 3 6 10 12 10 11 11 10 11 10 10 11 10 9 9 6 5 7 9 10 11 11 12 13 14 14 13 13 14 14 14 14 15 16 17 16 15 16 16 17 17 18 18 19 20 21 21 20 19 18 18 18 18 18 16 16 17 17 19 18 17 18 19
4 3 3 3 4 6 2 2 2 2 2 4 4 3 6 4 3 4 4 3 4 5 2 1 1 0 2 4 5 4 3 7 7 6 7 11 13 11 10 10 12 12 11 10 11 10 9 10 10 8 6 7 9 10 10 10 10 11 12 13 12 12 13 13 14 14 15 16 16 15 15 16 16 16 16 17 18 19 20 20 20 19 19 19 19 19 18 17 15 16 17 18 19 18 17 18 19
2 2 3 4 5 5 2 3 2 0 1 4 5 5 5 4 4 4 5 6 8 6 4 3 2 1 3 4 3 4 3 6 7 8 8 13 12 11 10 10 13 12 11 11 11 10 9 10 10 9 8 8 9 10 9 9 10 10 11 12 12 13 13 14 13 13 14 15 14 14 15 15 15 15 16 16 17 18 19 20 20 20 19 19 19 18 18 17 15 15 17 18 18 17 17 18 19
2 2 4 5 4 4 3 2 2 2 2 3 4 6 4 4 6 7 7 7 7 5 4 3 2 2 4 4 4 3 3 6 6 6 8 9 8 12 11 10 12 12 12 11 11 10 9 11 11 10 9 9 8 8 8 9 9 10 10 11 12 13 13 14 13 13 14 14 14 13 14 14 15 15 15 16 16 17 18 20 21 20 19 19 19 18 16 16 15 16 17 18 17 16 17 18 19
1 3 5 6 4 1 2 1 1 2 4 3 3 6 4 4 7 8 8 7 6 3 2 2 1 3 2 3 4 3 3 6 6 6 8 8 8 11 10 10 12 12 12 11 11 10 10 11 11 10 10 9 8 8 8 8 9 9 9 10 12 13 13 13 13 13 14 14 13 13 14 14 14 14 15 15 16 16 18 19 20 20 19 19 18 17 15 16 16 17 17 17 16 15 16 18 19
1 4 5 5 2 1 3 1 1 3 5 4 3 6 5 5 8 9 9 7 4 2 2 1 1 1 2 1 2 3 4 3 7 6 6 8 8 8 8 9 11 12 12 11 11 10 11 12 11 10 9 9 8 8 8 8 8 9 9 10 11 12 12 12 12 13 13 13 13 13 13 14 14 14 14 15 15 16 17 19 20 20 19 18 17 16 16 16 16 16 16 16 15 15 16 18 18
4 3 4 4 2 1 3 1 2 4 5 4 4 6 6 6 8 10 9 7 4 2 2 1 2 3 1 3 1 4 6 4 6 5 6 9 9 7 7 9 10 12 12 11 11 10 12 12 11 10 9 8 7 8 8 8 9 9 9 9 10 11 11 11 11 12 12 12 12 12 13 14 14 14 14 15 15 16 16 18 20 20 19 18 17 16 16 15 15 15 15 15 15 16 17 17 18
4 2 1 3 2 1 3 2 3 3 4 3 4 4 6 7 8 9 9 5 5 5 4 3 2 4 1 1 1 5 7 6 6 7 7 8 8 7 8 9 11 12 12 12 10 10 13 12 11 11 10 8 7 8 8 9 9 9 9 9 10 10 11 11 11 11 11 11 12 12 12 13 13 13 14 15 15 16 16 17 19 20 19 18 16 16 16 15 15 15 15 16 16 16 17 16 16
4 3 1 3 2 1 1 2 3 3 4 4 4 4 4 6 7 6 7 5 3 4 4 4 4 3 3 3 2 6 6 7 7 7 7 7 7 7 8 10 11 12 12 12 11 10 13 13 11 11 10 9 7 8 8 9 10 9 9 9 10 10 10 11 11 11 11 11 11 11 12 12 12 13 14 14 15 16 16 17 18 19 18 18 17 17 17 16 15 15 15 16 16 16 16 16 16
4 2 2 3 2 2 2 1 3 4 5 4 4 5 5 6 6 5 6 5 4 4 4 3 3 2 0 3 3 5 6 9 8 7 7 7 7 6 7 10 10 12 12 12 11 10 13 13 12 11 11 10 8 8 8 9 10 10 9 9 10 10 10 10 11 11 11 11 11 11 11 11 12 13 13 14 14 15 16 17 18 18 17 17 18 18 17 16 15 15 15 15 15 15 14 15 15
4 2 2 3 3 2 2 2 3 4 6 4 4 6 6 7 6 5 4 4 4 3 5 3 4 3 3 2 3 4 7 8 7 8 9 8 7 7 8 10 10 11 12 11 11 11 13 14 13 12 12 11 10 10 9 9 10 11 9 10 11 11 10 10 10 10 10 10 11 11 11 11 11 12 12 13 13 15 15 15 16 17 16 16 17 17 17 16 15 14 14 14 14 14 14 14 15
4 4 3 4 4 1 1 1 3 4 5 5 6 7 5 7 7 6 6 4 5 4 5 6 1 0 5 2 3 6 8 8 7 9 10 8 7 8 8 9 9 9 11 11 11 11 12 14 14 13 13 13 12 11 10 10 10 12 10 10 12 12 10 10 10 10 10 10 11 11 11 11 11 11 11 12 12 13 14 14 14 15 15 15 16 16 16 15 14 13 13 13 13 13 13 14 15
3 4 5 4 2 1 1 1 2 3 3 5 6 8 7 8 8 6 6 5 6 6 5 6 1 1 4 1 5 7 8 9 9 10 10 9 8 8 9 9 9 8 10 11 10 11 12 14 14 14 14 12 12 12 11 11 11 12 11 10 12 13 11 11 10 10 10 10 11 11 11 11 11 10 11 11 11 12 12 13 13 14 14 14 15 15 15 14 13 13 14 14 14 14 14 14 15
2 1 4 2 0 2 1 1 2 2 3 6 7 9 8 7 5 4 5 6 6 3 3 4 1 2 4 2 5 5 8 11 10 10 10 9 8 8 8 8 8 7 8 10 10 11 12 13 13 13 14 14 13 13 12 12 12 12 11 11 13 13 12 12 11 10 11 11 11 12 12 11 11 10 10 10 11 11 11 12 12 12 13 13 13 14 14 14 14 15 16 16 17 17 16 15 15
3 1 3 2 2 3 2 1 1 3 2 9 8 10 9 4 2 4 4 4 3 5 4 3 1 1 1 1 3 5 10 13 11 10 10 9 8 8 9 8 8 8 7 8 11 12 10 12 12 11 14 15 15 13 14 14 12 12 11 11 13 14 13 12 12 11 11 12 12 12 13 12 12 11 10 10 10 10 11 11 11 11 12 12 12 13 13 14 15 16 17 17 18 17 17 16 15
3 1 3 3 3 3 4 3 1 3 2 9 7 9 10 5 3 4 1 3 2 4 2 3 3 2 3 3 5 8 11 11 10 10 10 9 8 9 9 9 9 9 8 7 10 13 12 12 12 11 12 14 14 13 13 13 13 12 11 11 13 14 13 12 11 11 11 11 12 13 13 13 11 10 9 9 10 10 10 10 11 11 11 12 12 13 14 16 17 17 18 18 18 17 17 17 16
2 2 4 4 4 3 4 5 3 1 4 9 8 9 9 7 5 2 2 3 3 4 4 3 4 2 3 5 7 8 10 10 11 11 10 10 9 10 10 11 12 11 12 9 9 11 14 14 12 11 11 12 13 12 11 12 14 13 12 12 13 13 12 11 11 11 11 11 12 13 14 12 10 9 8 9 9 10 10 10 10 11 11 12 13 14 15 17 18 18 19 19 18 18 17 17 16
3 4 4 4 3 2 3 4 2 1 2 7 9 10 8 6 7 4 2 5 6 4 5 5 3 3 3 7 8 8 10 10 11 12 11 11 10 11 12 12 13 13 14 14 11 11 14 16 14 11 11 12 12 12 12 12 13 14 13 13 13 13 13 12 12 12 12 12 12 13 14 12 10 9 9 10 11 10 10 9 10 10 11 12 14 15 17 18 19 19 19 19 18 18 18 18 18
3 3 5 4 0 3 3 0 2 2 1 6 9 8 7 3 6 6 5 8 8 8 8 8 8 7 7 9 9 10 10 11 12 13 13 13 12 12 13 13 13 13 14 14 14 13 13 14 14 12 12 12 12 13 13 12 12 14 14 14 14 14 14 13 12 13 13 12 12 13 13 11 11 11 10 11 12 11 9 8 8 10 11 12 15 16 18 18 19 18 18 17 17 17 18 19 19
2 2 5 1 3 5 4 3 5 5 3 4 8 5 5 2 3 6 6 7 8 9 8 8 9 10 11 11 11 12 12 12 13 13 14 14 14 13 14 15 15 13 13 13 13 14 14 13 12 12 13 13 12 13 13 13 13 14 14 14 14 14 14 13 12 13 12 13 13 12 12 12 12 11 10 11 12 11 9 7 7 9 11 13 15 18 18 18 18 17 16 16 16 17 17 18 19
1 2 3 3 3 2 4 4 5 6 4 2 6 4 6 3 2 5 6 8 7 9 10 10 10 10 11 13 13 14 14 14 14 14 15 15 15 14 14 15 15 13 11 11 12 14 16 16 14 12 12 12 12 12 11 12 12 13 15 15 15 14 14 14 13 13 12 14 13 11 12 13 13 12 11 11 10 9 8 8 9 11 13 15 17 18 18 17 16 16 15 15 15 17 18 18 19
2 1 3 5 2 1 4 3 4 4 3 2 5 4 5 4 3 7 8 9 5 1 3 5 5 4 7 14 13 14 14 14 16 16 17 17 16 15 15 15 15 13 13 13 12 14 16 17 16 14 13 13 13 13 11 11 13 13 14 15 15 14 14 15 14 13 12 14 13 11 12 13 13 13 13 13 10 10 11 11 13 14 15 16 15 15 15 14 15 15 15 15 15 16 18 20 21
2 2 3 3 4 3 3 3 3 1 1 2 3 2 2 3 7 8 10 13 6 4 5 3 4 4 6 13 13 13 14 15 16 18 19 18 18 18 16 16 16 15 14 15 13 12 15 17 19 18 15 13 13 14 13 13 15 14 13 14 16 16 16 16 15 14 12 13 14 12 13 13 14 15 14 13 12 13 13 13 15 15 16 15 13 13 14 14 16 15 15 17 17 18 19 21 22
3 1 5 3 4 3 3 3 2 0 1 0 1 1 3 8 6 3 8 14 11 2 6 5 6 6 4 9 11 12 14 15 17 18 18 18 19 19 17 15 16 15 13 15 14 12 14 17 19 19 17 15 14 15 14 14 15 14 14 14 16 17 17 16 15 15 12 12 14 13 13 14 14 16 16 15 15 16 15 15 17 17 17 16 15 17 17 16 16 15 16 18 19 21 22 22 23
3 2 6 2 3 3 4 3 2 2 1 1 0 3 5 5 4 4 9 12 13 10 5 5 4 4 4 8 10 11 12 14 15 15 16 16 16 17 17 15 15 15 15 16 16 14 14 15 18 19 18 16 14 13 14 14 13 15 16 15 16 18 18 17 16 15 13 12 13 14 13 14 16 17 17 16 17 19 18 18 19 19 19 18 18 17 16 17 17 17 19 20 21 23 24 24 24
1 4 5 3 4 3 3 3 3 3 2 2 4 6 3 1 5 8 13 12 10 7 5 5 5 5 6 8 9 10 11 13 15 15 16 15 14 17 18 17 16 16 16 17 16 15 14 15 17 18 16 16 14 14 15 15 14 13 16 19 19 20 22 19 17 17 15 14 15 16 14 14 17 17 17 16 19 22 20 20 21 20 20 19 18 17 17 17 18 19 21 22 23 24 25 25 25
2 4 4 3 3 3 2 2 4 3 2 3 6 5 3 1 3 8 7 3 3 4 6 6 6 8 9 9 9 10 11 13 15 14 14 14 14 16 18 18 18 17 17 17 17 16 15 16 19 18 15 15 16 16 16 16 15 13 14 21 23 23 24 21 19 19 18 16 16 18 16 14 17 18 16 16 19 23 21 20 21 21 21 20 19 18 19 19 19 21 23 24 25 26 25 25 25
2 3 2 3 3 3 3 3 4 4 2 3 4 4 5 2 4 13 4 4 3 5 7 7 7 8 9 10 9 9 10 12 13 14 15 16 15 16 18 19 19 17 17 19 17 16 17 18 19 19 16 17 20 19 17 17 17 15 13 17 21 23 26 23 19 18 19 19 17 18 18 16 16 18 19 19 20 23 22 22 23 22 22 21 20 20 21 20 20 22 24 25 25 25 24 23 24
2 2 4 6 6 5 6 4 3 3 2 3 1 5 9 9 13 18 7 6 4 5 7 7 8 8 8 9 8 8 9 10 12 14 16 16 15 16 19 19 19 18 17 18 17 17 17 17 19 18 17 17 20 21 19 17 17 18 15 14 17 20 24 25 20 18 19 19 20 19 19 19 18 18 22 23 22 23 24 24 25 24 23 22 21 21 20 20 21 23 24 25 25 26 25 23 24
3 4 3 3 6 6 7 5 3 4 2 3 2 5 7 9 16 14 5 7 5 6 9 9 8 8 8 8 7 8 9 11 13 14 14 14 14 15 18 17 18 18 17 17 18 18 17 18 21 21 20 19 20 20 18 17 17 19 19 14 13 16 20 24 22 19 18 17 21 22 21 21 21 19 21 23 24 25 25 27 27 26 24 23 22 21 20 21 23 24 25 25 25 25 24 22 22
3 3 2 3 5 3 7 5 5 6 2 4 4 5 7 6 7 5 5 4 5 8 10 9 9 8 7 7 8 8 9 12 14 15 14 14 14 14 16 17 18 19 17 17 19 19 18 21 26 26 26 25 23 22 19 18 16 17 21 17 14 15 17 22 22 20 19 17 19 22 22 21 21 21 21 23 26 27 27 29 28 27 26 25 24 23 22 24 24 24 25 26 25 22 20 19 20
2 2 4 4 4 3 7 5 5 3 2 5 6 5 7 5 3 6 3 2 4 8 9 8 9 8 7 7 7 8 9 12 14 15 15 15 16 14 16 17 18 20 19 17 18 20 18 20 25 25 26 26 24 24 23 21 17 17 20 18 15 16 16 20 23 22 21 19 18 19 22 23 22 22 24 26 27 28 28 29 29 29 28 27 26 25 24 25 25 24 23 24 25 22 20 20 20
3 4 4 3 4 4 4 3 2 1 2 6 8 7 5 1 3 5 3 3 4 6 8 8 9 8 7 7 7 7 8 10 12 15 16 17 17 16 17 18 19 20 20 18 18 20 19 18 22 24 23 24 23 22 22 21 19 20 21 18 16 16 16 18 24 25 23 22 21 20 22 25 23 22 25 27 27 29 30 30 31 31 30 29 28 27 25 24 25 25 23 24 26 24 22 22 22
5 4 4 3 4 5 3 2 3 3 3 5 9 10 11 9 6 3 5 6 7 9 10 11 10 9 8 7 8 9 9 9 10 14 18 19 19 19 18 18 19 19 19 19 18 19 19 17 20 23 21 21 19 17 18 18 20 22 20 19 17 16 19 21 23 25 24 24 24 24 24 26 27 24 22 24 27 29 30 31 31 32 31 30 30 29 25 24 25 27 26 25 26 26 24 23 23
3 4 4 4 4 6 6 1 4 5 4 6 8 10 14 15 13 11 9 9 11 12 13 12 12 12 11 10 11 11 11 11 11 13 19 20 19 20 19 19 20 19 19 19 18 18 18 17 17 20 20 17 16 15 15 16 17 18 17 17 16 15 21 24 24 25 25 25 25 27 26 26 29 28 24 23 27 29 31 31 31 32 33 31 31 30 28 27 27 27 27 26 24 23 22 24 25
1 0 2 4 3 6 5 2 4 2 4 8 11 12 15 16 14 14 13 12 13 15 14 12 12 12 11 12 12 12 13 13 11 13 17 19 19 20 20 19 20 19 18 19 19 18 18 17 16 17 18 16 14 13 14 16 17 17 18 20 17 17 21 22 23 25 25 26 26 27 28 27 30 31 27 25 26 29 31 31 32 35 35 33 33 31 29 29 28 28 27 26 25 22 22 25 27
2 2 3 5 5 6 5 4 6 1 3 8 11 12 15 17 16 15 14 13 14 16 16 14 12 11 11 13 14 14 14 10 9 13 15 17 18 19 19 18 19 19 19 19 20 20 19 18 17 17 19 16 15 15 15 17 20 19 19 20 17 17 22 22 21 23 24 26 26 26 28 28 28 27 25 25 28 30 30 30 34 38 37 35 34 32 31 30 29 29 27 26 26 26 25 25 25
3 4 4 5 5 7 7 1 6 4 2 7 10 12 15 16 16 16 14 15 16 17 17 16 15 14 12 14 16 14 12 6 9 11 13 15 16 17 18 17 19 21 21 21 21 21 19 18 18 18 19 17 17 17 16 17 21 20 17 15 15 18 22 21 21 23 23 25 25 25 26 27 25 24 23 26 30 31 31 32 35 39 38 36 35 34 33 32 30 30 28 26 25 26 26 26 26
3 4 3 5 3 5 7 1 6 4 3 6 9 10 12 14 17 18 17 16 16 17 17 16 15 15 14 15 14 12 11 8 9 11 13 15 16 17 18 18 20 21 21 21 21 20 20 19 19 19 19 18 18 18 17 16 18 18 15 15 18 20 20 21 22 23 24 24 24 24 25 24 24 24 25 27 29 30 31 33 36 38 37 37 37 36 34 32 31 30 29 28 26 24 23 25 24
5 4 4 4 1 2 4 2 3 3 5 5 9 10 10 13 16 19 20 19 17 17 17 16 14 15 16 15 12 11 12 10 9 11 12 14 16 17 18 18 18 19 19 20 21 20 20 20 20 19 19 18 18 19 18 17 18 19 17 18 21 21 20 22 22 22 23 23 23 24 24 24 24 26 26 27 28 29 31 33 37 38 37 38 38 38 36 33 32 31 29 29 29 27 24 24 21
6 7 6 5 4 4 5 3 5 7 5 1 7 10 8 9 13 12 11 12 13 14 14 14 13 14 14 13 12 11 12 11 9 9 11 13 15 17 18 17 17 19 19 20 21 21 20 20 20 20 19 17 18 20 19 19 22 23 21 19 20 20 21 22 23 23 23 24 24 25 25 25 25 26 26 27 29 29 31 34 37 37 37 38 39 38 37 35 34 33 31 30 31 31 30 27 23
5 8 9 8 7 6 7 5 7 7 3 2 3 7 4 4 8 8 4 6 10 10 11 13 13 12 12 11 11 11 10 10 9 10 10 12 14 15 16 17 17 19 20 20 21 21 20 20 21 20 18 17 18 20 22 23 24 26 26 23 23 24 23 24 26 26 26 25 26 26 26 26 25 25 26 28 29 30 32 35 36 37 37 38 39 38 36 36 35 33 32 32 30 28 30 29 25
4 3 5 8 8 6 7 5 3 5 5 1 1 4 6 4 7 10 7 9 13 10 10 12 12 11 10 9 9 8 8 8 8 9 9 9 12 14 15 17 19 19 20 20 20 21 20 19 21 21 19 17 17 21 26 27 25 27 28 27 27 28 25 25 26 26 26 26 27 26 26 26 26 26 27 29 30 30 32 34 35 35 36 37 39 38 36 35 35 33 32 32 29 26 27 29 26
2 1 1 3 4 5 4 3 4 5 7 6 4 4 8 8 7 10 11 12 14 11 10 12 11 11 10 9 7 6 6 6 5 6 8 8 10 13 15 17 18 18 19 19 19 20 20 19 20 21 19 18 18 23 30 29 28 28 29 28 28 29 27 25 24 25 27 28 28 27 27 27 27 27 28 29 30 30 31 32 33 34 35 37 39 37 36 35 34 34 32 31 28 26 27 27 26
1 2 1 2 1 2 2 2 4 3 6 7 6 7 7 7 3 8 10 10 11 10 10 11 11 10 8 6 5 4 3 3 3 4 6 7 9 11 13 14 16 16 17 18 18 18 19 19 19 20 20 18 18 25 31 31 29 29 29 28 27 27 26 25 25 26 28 28 28 27 27 28 29 28 29 29 30 31 31 30 32 34 35 37 38 37 36 35 35 35 33 31 29 27 27 23 23
3 4 4 4 3 1 2 3 3 2 5 7 7 10 5 8 3 8 6 6 8 8 9 9 9 7 3 3 3 3 3 3 2 2 3 5 8 9 11 12 14 16 17 17 17 17 18 19 20 20 20 18 19 26 32 33 31 29 29 28 26 25 23 24 26 27 28 28 27 27 28 29 30 30 30 29 30 31 30 31 32 34 35 36 37 36 35 36 36 36 34 32 31 28 25 20 20
6 7 4 3 3 2 2 3 1 2 7 7 9 15 9 8 3 7 5 5 7 7 7 7 7 5 3 3 2 3 4 3 3 3 3 5 6 8 10 12 14 15 16 17 17 17 18 18 20 21 21 20 20 26 33 33 33 33 31 27 25 26 25 25 26 26 27 26 25 27 29 29 30 31 31 30 30 30 30 31 33 35 35 36 37 36 36 36 36 35 33 32 31 27 23 19 17
5 4 4 3 3 2 3 4 3 4 8 3 3 9 11 10 4 4 4 4 7 7 8 8 7 6 3 2 3 3 4 4 4 4 4 5 6 7 10 11 14 15 16 17 17 17 18 17 19 20 21 22 22 25 32 34 34 36 32 26 25 28 27 27 27 27 29 28 26 28 29 29 29 29 30 30 30 31 31 32 34 35 35 36 37 36 35 36 35 35 34 33 31 26 22 19 17
4 4 5 4 4 3 4 5 4 6 7 1 4 2 7 11 8 9 9 6 7 8 8 8 7 8 7 2 4 4 4 4 4 4 5 5 6 7 10 12 13 15 16 17 17 17 17 16 18 19 21 24 24 26 32 34 35 35 32 28 28 28 27 28 29 29 31 32 31 31 31 30 30 30 30 30 30 31 31 33 35 35 36 36 37 36 34 35 35 35 34 32 30 27 24 20 19
7 7 7 6 5 5 6 6 5 6 5 2 4 2 5 7 7 12 18 15 11 10 9 7 6 8 10 5 3 4 5 5 5 5 5 6 7 8 10 12 13 14 16 17 18 18 17 16 18 19 22 25 25 27 32 33 34 36 34 31 29 28 28 29 30 31 34 35 34 34 34 33 33 32 32 31 31 31 32 33 33 34 35 35 35 35 34 34 35 34 34 32 30 28 26 22 20
9 7 6 7 6 6 6 5 6 6 3 0 3 3 4 3 1 3 7 8 9 9 10 9 7 8 8 6 4 5 6 6 6 6 6 6 8 9 11 12 13 15 16 18 18 18 18 17 19 21 23 25 24 26 32 33 34 36 35 33 29 29 31 30 29 31 34 35 35 35 35 35 34 34 33 32 31 32 32 32 32 33 33 33 34 35 34 35 35 34 33 33 31 28 26 23 20
6 5 6 7 5 6 5 2 2 2 4 3 4 4 5 4 4 3 2 2 5 7 9 10 10 10 8 7 7 7 6 6 7 7 7 7 9 10 11 12 14 15 17 19 19 19 19 17 19 21 23 25 23 24 30 33 33 34 34 33 31 30 31 32 31 31 32 34 35 35 35 34 35 35 34 33 33 33 33 33 33 33 33 33 34 35 35 35 35 34 34 33 30 27 25 22 20
5 6 6 2 2 3 5 3 3 2 5 6 5 7 8 7 10 10 12 10 9 8 8 10 10 11 9 8 8 7 4 5 6 6 7 7 9 10 12 13 14 16 17 19 19 19 20 18 19 20 22 24 23 22 28 32 32 32 33 33 32 30 31 32 32 31 31 32 33 34 34 33 34 36 36 35 35 34 34 34 34 34 33 33 34 34 35 35 35 34 33 32 29 26 23 21 19
3 5 5 3 4 2 4 5 2 3 8 6 5 10 10 7 6 5 11 11 9 10 10 11 11 11 10 9 8 7 5 4 5 5 6 6 8 10 12 13 14 15 16 18 19 19 19 19 19 20 22 25 24 22 26 30 29 30 32 34 34 32 32 32 32 30 30 31 31 32 32 31 32 35 36 36 36 36 36 35 34 34 34 33 33 34 34 34 34 33 31 29 27 24 22 20 19
0 1 2 2 2 5 5 6 5 6 8 6 7 11 10 9 7 4 8 11 10 11 12 11 12 11 10 10 9 9 7 3 4 5 5 5 7 10 12 13 14 15 16 17 18 18 19 19 19 20 22 25 25 23 25 29 30 30 32 34 34 33 33 33 32 31 30 30 31 32 32 31 31 34 36 36 36 36 36 35 34 34 34 33 33 34 33 33 32 31 30 27 25 23 22 21 21
0 2 3 2 2 4 4 5 5 5 7 7 8 10 9 8 9 10 11 11 11 12 11 10 11 11 10 8 7 6 5 3 3 4 5 5 8 10 12 13 14 15 15 16 18 18 19 19 19 20 21 23 25 24 23 29 33 33 33 34 33 33 34 33 31 31 31 30 31 32 32 32 32 34 36 36 36 37 37 36 35 34 34 33 33 33 32 32 31 30 28 26 25 24 23 23 22
6 6 7 5 3 1 2 4 5 4 5 6 7 10 10 4 3 7 7 7 10 10 8 8 8 10 9 6 5 4 3 3 3 4 5 5 7 9 11 12 13 14 15 16 17 18 19 19 19 21 22 23 26 26 24 25 31 34 34 35 35 34 35 33 31 31 33 32 31 31 32 32 33 35 37 36 36 36 37 36 36 35 34 34 34 33 32 31 30 29 28 27 26 25 25 24 23
9 9 10 10 8 5 4 5 5 2 4 5 5 10 11 2 4 2 2 4 7 7 7 6 7 9 8 5 4 3 3 4 4 4 5 5 6 9 11 12 13 14 15 16 18 18 19 20 20 21 23 25 26 27 26 24 27 33 35 35 35 33 33 33 32 32 33 32 32 31 32 33 33 35 36 35 36 36 37 37 36 35 35 34 33 33 32 31 30 29 29 28 28 27 26 25 24
Wind_Direction
329 310 288 261 256 270 253 240 235 172 228 99 99 131 101 69 88 142 142 137 141 105 46 13 4 356 4 353 350 352 10 7 12 7 41 101 146 140 129 141 141 144 140 137 145 142 139 139 133 130 120 119 125 124 123 121 119 119 117 114 114 113 111 109 106 103 100 97 94 91 87 82 77 73 71 72 73 74 76 76 77 78 81 84 86 87 87 89 91 90 87 86 84 82 79 74 72
331 317 292 261 251 265 261 233 262 155 175 112 88 69 102 125 171 156 134 107 69 93 93 67 148 14 344 333 316 299 48 44 46 61 80 122 140 138 137 144 150 152 144 143 146 146 147 148 142 139 140 134 129 127 126 124 122 122 121 119 119 116 111 104 99 99 97 96 95 93 89 83 78 73 71 72 73 75 78 80 79 79 82 84 86 87 88 89 92 93 91 90 87 82 77 73 74
315 295 268 256 238 245 253 237 271 321 125 90 90 92 125 156 145 109 84 76 77 103 115 100 147 106 264 265 308 308 76 77 80 83 105 137 144 147 148 146 156 156 147 148 149 150 152 154 149 144 149 149 137 131 130 128 127 124 123 123 123 118 113 107 102 100 98 97 98 96 91 85 81 77 73 74 75 75 78 81 81 81 83 85 87 88 92 94 92 93 91 89 86 82 78 76 76
299 253 253 264 238 224 252 253 324 322 58 69 99 111 143 142 113 98 85 87 92 118 126 137 156 78 282 302 0 322 89 92 79 78 122 141 130 137 147 149 158 159 151 153 153 152 160 160 152 149 151 154 147 139 138 132 132 130 127 126 123 120 115 111 107 105 103 101 101 98 95 89 83 79 75 75 76 76 79 82 84 84 85 87 89 89 95 101 101 99 93 89 87 84 82 80 80
355 262 260 268 263 252 282 286 323 333 50 33 89 119 140 118 115 112 105 106 103 115 118 186 144 91 271 320 337 318 81 101 96 78 106 117 116 131 142 148 157 163 157 157 154 153 170 166 153 153 152 157 154 146 147 140 140 138 131 128 122 121 118 114 113 110 108 105 102 101 98 92 86 80 77 77 78 79 82 85 88 88 88 90 91 89 91 96 96 95 92 90 90 88 85 83 83
292 254 241 252 279 330 266 209 95 67 51 5 62 118 128 116 127 124 121 119 112 85 86 245 358 143 200 102 346 15 49 106 119 92 92 116 133 137 139 151 161 166 161 161 156 157 173 167 155 154 153 161 160 152 154 150 148 142 135 131 126 122 119 117 116 112 110 108 105 105 101 95 89 83 81 81 82 85 88 90 92 92 92 93 92 90 88 88 89 90 92 93 93 92 88 85 85
284 245 203 221 194 255 262 74 54 74 63 9 45 112 128 127 129 133 142 140 145 157 184 230 344 259 183 111 157 75 68 73 108 91 91 122 137 144 149 158 167 168 164 161 158 165 172 165 158 153 153 164 165 161 162 162 154 147 141 134 132 126 123 121 118 116 113 110 108 108 104 98 92 86 85 84 85 88 90 93 95 95 94 94 95 95 94 92 92 94 96 97 98 95 90 88 87
273 265 211 240 198 239 282 73 53 51 71 55 59 81 108 134 140 149 159 156 161 162 180 181 243 252 115 128 205 105 99 81 101 104 106 126 139 149 151 162 169 168 165 160 159 165 170 165 162 156 154 161 163 165 166 169 163 152 148 142 140 134 130 128 124 121 116 112 110 110 105 98 92 87 84 83 85 87 88 94 98 98 97 96 97 98 97 97 98 101 100 97 96 95 94 92 90
246 255 221 253 229 209 266 94 84 76 98 121 111 84 93 140 159 165 165 155 148 158 162 156 214 251 110 170 114 116 131 105 115 122 123 129 140 151 148 165 172 169 168 164 159 160 169 168 166 162 157 159 161 163 163 171 170 163 159 155 148 142 140 135 131 125 121 117 113 114 108 100 93 87 84 82 85 87 88 94 100 100 99 99 98 98 98 98 100 101 98 95 96 98 98 96 94
219 243 234 248 246 205 222 140 112 109 117 126 125 133 141 153 171 184 179 158 146 161 125 106 209 239 111 181 127 117 129 121 129 129 136 135 138 156 156 170 175 174 173 168 164 160 169 171 170 171 164 161 164 164 163 172 178 174 172 169 160 150 148 142 137 131 127 124 120 118 112 104 96 90 86 85 88 91 92 96 101 102 101 101 100 100 99 98 100 103 103 102 101 101 100 97 96
211 203 258 248 231 224 231 129 119 116 124 141 139 141 156 164 178 191 190 157 152 164 123 148 212 213 232 201 115 107 120 132 138 133 143 142 141 158 162 170 180 183 178 173 171 163 170 176 177 178 171 167 171 171 166 172 183 181 176 177 170 157 153 149 142 137 133 130 127 123 118 110 100 94 91 90 92 95 96 98 101 103 103 104 104 105 102 101 107 110 109 107 104 102 101 99 97
227 183 205 239 237 237 358 51 124 121 133 165 162 148 161 169 182 189 191 173 165 183 160 181 229 261 220 204 112 122 135 145 134 131 137 139 145 158 163 169 181 189 185 181 178 168 170 178 182 184 180 175 175 175 171 172 183 184 178 178 173 162 158 156 148 144 140 136 133 130 125 117 108 103 98 97 97 98 99 99 102 103 104 105 106 108 108 109 112 111 107 105 103 102 102 102 101
252 195 208 234 287 333 18 349 115 127 173 180 158 147 162 174 192 196 188 184 177 191 168 162 104 299 242 129 117 138 147 147 135 134 136 140 146 158 167 172 182 192 190 185 181 175 175 180 184 189 187 183 181 181 178 175 181 184 182 180 174 166 164 162 156 152 147 142 139 136 131 123 116 111 107 105 103 102 102 101 103 103 104 106 106 108 110 110 108 105 103 102 100 102 103 104 104
294 222 239 237 22 275 261 303 134 212 209 140 130 143 166 183 199 214 193 195 180 161 106 116 129 243 249 164 145 153 148 141 140 142 139 143 147 160 170 175 183 183 184 184 185 183 182 183 181 187 189 189 190 186 181 179 181 183 186 185 177 170 168 166 162 159 154 149 146 141 136 128 123 120 115 113 110 108 105 104 103 103 104 105 106 106 107 106 104 103 101 101 99 99 101 103 105
317 276 259 249 198 228 198 247 170 247 181 123 136 149 167 180 181 222 220 215 132 90 95 118 210 243 276 220 123 111 132 135 142 144 140 146 151 164 168 176 185 174 173 182 190 187 184 185 181 184 189 192 193 188 183 183 184 183 185 188 182 177 172 168 164 163 159 156 152 145 138 130 125 122 117 116 116 113 108 106 103 102 104 104 105 105 105 105 103 102 100 99 98 99 101 103 105
314 276 240 239 218 212 183 201 179 241 139 121 145 152 170 172 170 219 304 342 76 109 173 162 180 252 353 33 86 99 124 131 140 141 141 152 155 169 174 179 186 183 184 185 193 190 187 189 186 186 187 191 193 189 185 184 187 184 181 187 187 183 177 172 168 166 165 161 154 147 140 133 127 120 117 118 117 115 110 107 105 106 108 108 108 106 106 106 104 102 100 99 99 99 100 102 104
288 248 232 231 214 205 172 183 180 219 101 120 151 162 180 168 162 217 42 297 241 150 202 181 158 237 11 82 111 118 131 134 142 144 150 162 164 176 183 187 189 193 199 197 196 195 196 194 191 193 189 191 193 189 186 186 190 187 184 187 187 185 180 176 173 169 168 163 157 150 143 139 134 127 125 122 117 114 110 109 110 113 114 114 113 112 111 109 108 107 106 104 103 102 100 101 102
241 217 227 236 220 187 151 184 178 5 114 141 162 177 195 175 164 171 149 225 227 197 206 193 180 200 120 109 124 133 143 150 154 158 164 171 176 182 187 193 195 195 200 202 199 199 200 195 194 197 195 196 193 188 188 189 192 189 187 188 187 187 181 177 176 173 169 167 165 154 148 144 137 133 134 131 123 114 111 112 117 119 119 118 118 117 115 113 112 110 109 108 107 108 106 104 104
240 229 234 241 145 75 61 17 85 23 22 146 160 186 206 186 158 163 202 215 205 221 219 202 215 204 159 139 144 146 154 165 168 174 178 180 185 188 188 194 201 197 196 199 198 200 201 195 192 193 195 198 195 194 193 192 193 190 190 190 189 188 183 181 180 177 174 176 174 162 154 148 141 140 144 140 129 118 111 113 120 123 120 121 121 119 117 115 113 112 111 111 110 110 110 110 109
249 257 240 224 61 76 61 38 78 51 15 151 157 173 201 188 138 163 219 232 210 226 229 209 217 212 187 167 159 158 165 175 181 187 189 192 192 193 193 194 202 202 195 194 196 199 200 198 194 188 189 194 195 197 199 197 197 193 192 192 189 187 185 185 187 185 184 183 180 171 159 152 155 155 153 146 131 122 117 118 122 122 120 122 122 120 118 116 114 115 115 115 116 115 114 112 112
194 242 274 33 36 86 78 70 79 54 12 140 137 153 200 179 149 188 220 239 227 229 233 221 225 226 193 171 166 167 173 182 188 194 196 200 198 199 200 197 202 202 196 192 191 196 198 200 199 189 187 192 193 196 202 203 201 196 195 194 193 191 187 189 193 192 192 191 184 178 166 161 168 166 156 151 142 139 139 141 136 129 128 127 125 122 119 118 118 119 120 122 122 122 121 117 114
204 195 6 29 346 45 87 87 74 48 13 100 138 169 189 148 197 220 223 235 234 241 253 228 233 258 165 160 169 172 179 188 191 197 201 203 202 203 202 198 201 202 198 194 190 192 193 196 198 194 194 196 196 198 206 212 210 204 199 197 197 197 192 192 195 194 198 198 189 180 173 170 174 171 160 157 164 168 160 154 148 142 140 134 129 127 123 125 129 128 128 128 128 128 127 124 121
244 149 83 47 8 40 87 92 70 14 289 165 160 155 144 192 229 225 224 237 246 55 49 44 59 57 131 155 167 176 186 193 195 200 201 203 204 205 203 197 199 199 197 197 193 192 190 195 199 198 197 198 200 202 206 219 219 211 206 203 200 200 198 196 198 197 198 198 194 186 179 176 174 173 168 164 172 174 166 163 158 152 148 142 140 141 138 137 139 136 133 131 130 129 127 125 124
269 152 117 84 34 51 68 73 93 197 243 115 42 350 227 228 240 231 227 240 250 225 94 80 79 88 140 164 173 188 195 197 201 204 203 206 207 205 205 200 199 197 196 198 195 194 193 199 206 204 200 198 201 203 207 218 220 213 211 211 207 205 202 200 202 200 198 197 197 193 187 183 176 173 174 173 176 176 172 171 165 162 162 160 159 156 151 146 142 136 132 131 129 129 126 122 122
260 136 121 119 72 79 79 83 130 146 226 20 271 238 232 242 293 292 246 241 248 242 162 132 132 126 168 189 192 199 201 203 205 205 205 209 210 206 206 203 200 198 199 198 195 196 196 199 205 205 202 201 200 203 208 214 219 218 215 214 214 213 209 206 205 201 198 197 198 197 192 190 185 178 179 179 180 180 178 177 174 176 178 174 169 164 158 148 140 136 133 132 130 127 124 121 120
35 118 128 139 114 96 107 143 150 165 203 154 214 223 209 277 323 277 250 241 237 231 198 176 183 190 202 208 208 207 206 207 205 203 204 206 208 206 206 205 203 203 200 196 195 198 198 199 202 201 202 205 202 205 212 214 218 223 221 220 219 219 218 212 206 204 202 201 205 204 196 194 193 186 181 178 184 188 186 187 187 187 185 178 172 165 157 149 141 138 134 130 128 124 122 121 121
73 117 123 129 123 114 143 178 153 191 200 173 234 240 189 145 291 257 244 231 189 189 218 211 208 221 220 217 216 215 214 213 207 203 203 201 203 205 205 204 204 205 200 197 199 199 198 202 204 203 203 205 203 204 211 215 217 222 227 226 222 220 221 214 207 208 207 205 208 208 201 197 199 196 187 179 188 195 193 195 194 189 183 176 173 164 155 150 143 138 133 130 127 122 120 119 119
95 125 159 163 163 146 176 204 161 203 191 166 256 272 241 173 231 248 219 93 148 194 224 213 215 231 226 225 221 217 220 218 208 203 204 201 200 202 203 204 203 203 202 201 202 199 200 203 206 207 205 210 215 213 214 217 218 220 226 228 223 220 218 212 207 208 209 209 208 205 201 196 198 201 194 189 196 197 194 194 190 186 183 177 173 165 158 152 146 142 136 131 128 124 120 118 118
122 180 224 180 198 203 186 189 152 219 195 123 277 271 246 209 225 247 209 135 170 207 236 225 223 232 225 225 220 217 220 215 208 206 210 208 202 203 206 207 203 202 203 203 201 200 201 202 205 209 209 214 222 221 221 221 220 220 221 225 226 225 217 208 206 210 211 211 209 205 203 199 196 196 195 197 201 198 194 191 186 186 185 177 172 168 162 154 148 144 139 134 130 127 123 120 119
164 196 266 203 220 209 175 168 147 207 165 114 238 269 258 214 221 238 176 156 202 229 246 244 237 234 226 222 216 223 219 211 211 210 212 210 207 208 208 206 202 201 201 200 201 201 200 205 208 211 214 217 223 225 223 224 223 220 220 221 223 228 220 206 203 208 209 211 211 206 204 204 200 197 200 201 199 196 193 188 186 187 184 177 173 169 162 154 150 146 141 137 131 126 122 120 120
189 182 245 235 248 172 145 157 170 195 161 143 218 258 277 261 210 178 124 167 220 247 253 248 243 235 226 220 219 227 222 216 216 214 211 208 210 208 205 203 199 198 198 198 201 202 201 212 217 218 221 223 226 229 225 222 222 217 219 220 220 226 222 210 205 205 204 207 212 211 207 207 206 204 204 201 197 197 194 190 188 187 182 178 173 168 163 155 151 145 140 137 132 127 124 122 121
204 216 215 206 238 160 139 149 181 195 131 172 210 254 264 270 117 104 96 186 213 250 262 259 252 240 230 224 225 232 229 221 217 216 212 206 208 206 202 201 197 196 198 198 201 206 205 214 222 223 225 228 228 231 230 225 221 216 217 220 222 225 223 217 215 215 215 212 210 213 210 208 207 205 203 200 196 196 194 191 189 186 182 179 173 167 163 157 150 146 143 143 140 132 128 127 126
197 233 238 186 220 222 153 130 185 221 117 187 216 260 272 248 102 110 149 199 212 246 264 265 258 248 237 231 231 233 231 221 213 213 210 204 206 204 201 200 199 198 199 198 198 205 204 209 223 224 225 230 230 231 230 225 219 213 214 218 221 221 219 217 219 219 224 225 219 216 213 211 208 202 200 198 196 195 193 193 192 188 183 178 171 164 160 157 154 151 149 149 145 138 134 132 129
196 211 248 234 240 258 239 137 134 174 212 223 223 246 264 267 270 229 187 195 221 251 263 262 260 253 244 237 235 235 233 225 211 207 206 203 203 203 203 202 202 200 200 201 198 201 201 203 219 223 222 225 225 222 222 220 216 213 213 218 218 218 222 222 223 223 226 232 230 224 218 213 208 198 192 194 196 194 193 195 194 187 181 177 172 166 163 163 162 159 154 150 147 142 137 134 131
204 188 233 248 232 243 256 210 141 170 207 246 243 249 262 265 268 264 247 232 239 258 263 261 259 257 253 246 244 241 237 233 219 204 201 200 199 201 202 201 202 200 200 202 199 199 200 200 209 217 218 216 212 213 213 209 207 206 205 210 212 218 226 226 225 226 229 233 233 227 218 209 204 197 191 195 198 194 193 196 193 186 183 180 177 174 171 169 165 162 156 148 144 142 140 139 136
8 208 275 280 259 248 258 124 126 190 237 252 253 259 269 271 270 268 267 261 258 263 264 262 257 252 251 248 247 243 238 239 222 201 194 192 194 197 198 198 198 198 198 198 198 198 197 197 198 207 212 205 200 205 205 200 200 201 204 210 212 219 225 226 226 226 228 232 232 228 219 208 200 198 200 201 199 196 195 195 189 184 185 184 182 180 178 174 169 163 156 149 146 144 144 142 138
338 303 285 274 276 274 275 110 119 165 262 262 260 262 270 274 275 274 274 271 268 266 263 262 256 248 244 242 244 241 240 236 198 183 181 181 186 193 195 195 193 194 196 194 196 197 196 196 192 199 207 199 195 201 201 202 202 200 204 209 212 220 224 225 227 228 227 228 228 225 219 209 200 199 205 204 199 197 195 192 186 184 186 187 186 185 181 178 172 164 156 153 153 149 145 144 141
276 266 271 265 260 268 281 110 132 154 229 266 269 268 267 270 275 276 273 268 263 261 260 260 258 254 249 243 243 243 243 215 164 167 172 174 182 189 192 193 192 193 194 194 195 196 195 195 192 197 203 196 197 204 203 205 203 199 201 203 205 217 222 221 221 220 219 219 218 217 213 208 207 209 209 203 197 193 191 189 188 188 189 188 186 183 181 177 172 168 162 157 155 152 150 150 146
242 242 255 263 265 278 283 119 125 157 219 275 282 277 269 268 272 270 265 261 257 256 257 260 264 261 256 251 249 249 246 214 176 175 175 178 184 187 191 195 197 196 194 193 194 193 192 192 193 196 199 195 199 206 204 204 201 199 201 200 203 209 212 211 209 208 208 209 210 211 210 208 211 209 204 199 196 193 191 190 191 191 190 187 185 180 178 175 172 172 169 163 158 154 153 157 156
224 229 241 248 257 300 272 145 115 212 223 286 294 282 270 261 260 261 257 254 255 259 260 260 259 258 257 257 258 256 251 234 203 186 178 182 186 188 194 196 196 196 195 194 192 191 191 193 193 193 195 195 200 205 203 200 197 194 196 202 208 209 206 205 203 203 205 208 208 206 204 203 201 197 195 197 196 194 193 192 192 192 190 189 187 182 179 179 176 173 172 168 164 159 159 167 171
218 221 233 249 252 264 267 301 326 282 229 272 294 280 267 239 236 250 250 242 248 252 256 257 250 247 251 255 257 253 249 244 228 204 185 183 188 190 193 192 191 193 195 195 191 190 191 193 193 192 193 195 202 204 199 198 200 196 196 202 205 203 203 201 200 202 203 206 205 199 196 195 193 193 192 195 196 193 193 193 193 193 191 191 189 186 185 184 181 177 176 175 173 169 167 173 176
220 210 221 245 264 277 280 307 334 303 250 121 322 298 286 193 218 244 232 225 244 238 235 246 248 243 242 243 244 241 240 238 232 224 202 187 187 187 187 188 190 193 196 194 191 191 192 192 191 190 191 195 201 203 200 200 201 199 197 196 193 192 195 198 200 202 201 201 200 196 194 192 191 194 194 194 195 194 194 194 194 194 192 192 192 190 188 185 182 180 182 182 180 177 173 173 176
241 199 213 240 259 272 277 291 305 293 297 300 28 304 292 264 243 250 247 251 259 251 238 246 253 253 245 239 236 233 231 223 216 220 215 196 182 180 186 189 192 194 195 193 191 192 192 189 189 189 192 196 199 204 205 204 201 200 200 198 196 195 195 199 203 204 202 200 198 196 197 194 193 196 196 197 197 195 197 196 196 196 195 194 193 190 188 185 183 184 187 187 183 181 178 176 179
258 53 18 214 229 243 249 271 254 277 316 291 207 213 276 279 249 231 231 248 260 259 254 256 258 260 258 249 239 231 228 219 203 204 211 203 186 185 190 191 193 195 192 190 190 192 191 189 187 188 192 194 200 207 207 205 204 203 203 202 203 203 204 207 208 205 203 201 198 197 199 198 198 198 196 197 197 197 199 199 198 198 196 193 192 190 188 186 186 187 189 189 185 185 187 184 184
57 73 44 98 135 230 215 248 263 281 316 286 197 169 257 280 205 186 206 234 253 255 257 263 263 264 262 251 242 229 208 198 194 195 202 202 194 193 193 190 191 192 190 188 189 189 190 190 188 189 193 194 203 210 207 205 205 205 205 205 205 206 208 211 210 205 202 201 199 199 201 200 198 198 196 195 197 199 201 201 200 199 197 194 192 191 191 190 192 193 191 190 189 191 193 190 192
123 128 97 89 107 108 169 239 281 287 282 268 185 163 248 285 183 158 184 223 239 249 258 261 265 268 250 214 223 194 155 149 166 182 184 190 193 192 190 187 187 188 189 188 187 187 188 190 190 192 195 198 207 211 208 207 205 204 205 206 205 204 202 202 203 201 200 199 199 201 200 198 196 196 194 195 198 200 202 202 199 198 197 197 195 194 194 195 197 198 196 194 194 195 193 192 200
141 148 127 120 154 149 193 234 272 269 266 259 183 173 213 273 191 159 191 206 208 236 258 253 257 265 233 180 195 168 144 137 143 155 157 164 175 180 183 185 185 185 186 186 187 187 189 190 193 196 200 203 210 213 210 208 207 205 205 204 204 202 197 195 196 197 197 195 196 199 198 196 194 193 193 195 198 200 201 202 200 198 197 196 196 197 199 200 201 201 199 197 197 195 193 195 201
161 167 176 185 194 189 207 207 181 235 256 273 147 178 215 244 219 184 225 193 190 223 252 259 269 278 264 157 149 139 132 135 140 153 158 158 164 173 181 186 185 184 184 187 188 188 190 192 194 198 204 207 211 213 210 208 208 207 205 203 203 201 199 199 201 202 201 197 196 197 196 195 194 193 193 196 199 199 201 203 202 199 198 198 199 201 203 203 203 202 200 199 199 197 195 197 196
203 193 186 208 222 211 223 211 192 233 247 108 82 137 236 247 249 253 258 235 209 224 246 266 277 281 281 223 147 138 140 148 154 165 167 173 180 179 184 187 185 186 187 189 190 189 191 195 196 200 207 210 211 210 208 208 208 208 205 204 205 204 204 207 209 209 207 203 200 198 195 195 196 195 196 198 200 200 200 203 204 202 202 202 203 204 204 204 203 203 201 200 201 200 199 200 200
196 193 184 201 216 226 234 223 221 242 245 132 113 141 252 264 261 245 244 243 236 234 243 258 266 266 275 272 181 155 163 165 161 171 174 182 189 184 185 187 186 189 191 191 192 191 192 195 199 206 210 210 210 210 209 208 209 210 208 207 207 206 207 211 211 210 208 204 202 201 199 198 198 198 198 199 201 201 200 203 205 206 207 207 206 205 205 204 203 202 201 200 202 205 204 205 207
198 202 200 213 220 236 246 239 246 258 282 212 156 182 232 242 25 225 239 249 239 236 240 246 256 256 267 275 239 208 199 189 173 179 190 191 188 182 182 186 188 191 192 192 194 193 193 197 202 209 212 211 211 212 211 210 212 213 211 209 208 208 209 211 209 207 207 204 204 204 203 201 200 201 200 199 201 203 202 202 204 207 208 209 208 207 206 205 203 202 201 202 204 207 207 208 210
200 198 215 234 238 247 261 270 247 307 323 267 200 235 246 246 292 263 204 223 211 218 232 235 248 255 259 270 256 242 223 197 184 190 201 197 186 180 181 186 190 192 192 192 193 192 193 196 203 210 213 212 213 212 211 213 214 214 212 209 208 207 209 210 208 206 205 204 206 208 206 203 202 203 202 200 201 204 203 202 202 205 208 209 208 207 207 205 203 202 202 203 205 207 208 208 209
180 183 205 222 17 275 253 242 112 95 281 262 221 254 270 281 279 237 211 225 213 198 215 225 238 249 253 261 261 257 237 189 183 193 197 194 185 183 187 190 190 191 192 192 192 191 192 194 201 209 212 212 211 210 211 214 213 214 214 212 209 207 208 210 209 210 209 206 206 207 204 203 203 204 204 203 202 203 203 202 203 205 207 209 208 207 206 204 202 202 203 204 205 206 206 206 206
154 186 190 115 46 313 248 249 230 219 254 262 236 254 267 273 277 203 193 220 222 209 215 223 231 238 243 246 251 261 250 179 169 182 186 185 186 188 191 192 192 192 192 193 192 191 191 194 199 206 211 211 209 210 212 213 211 213 215 215 212 210 211 214 213 214 214 209 206 205 202 202 203 204 204 204 203 202 202 203 204 206 207 207 207 206 204 203 202 202 203 204 205 204 203 201 198
119 285 177 151 223 219 206 226 242 240 249 264 258 261 261 239 242 231 201 203 207 216 217 219 230 234 238 240 239 251 253 209 168 178 181 182 188 193 192 191 192 191 191 192 191 190 191 195 199 205 211 212 212 213 213 212 211 212 215 216 214 212 214 217 217 216 214 211 209 208 205 203 203 203 204 204 204 203 204 204 205 206 205 204 205 204 202 201 201 201 202 202 202 201 199 194 190
294 294 235 214 248 237 213 209 226 243 246 262 274 271 261 236 235 244 233 209 201 214 214 212 225 232 235 237 228 231 238 228 195 180 183 188 191 194 192 189 189 188 191 191 190 191 193 194 198 205 211 213 214 215 214 213 213 213 214 215 213 213 216 219 217 215 214 214 215 214 209 205 203 204 205 205 205 205 206 206 205 205 204 202 202 202 201 200 201 201 202 201 198 195 193 189 185
188 214 213 200 182 258 283 232 223 245 251 258 276 275 268 255 211 225 231 211 205 210 203 201 220 232 232 228 218 208 199 205 199 180 183 190 191 190 187 186 185 186 189 190 191 192 194 196 199 203 208 212 213 214 215 214 213 214 215 213 213 214 216 217 215 216 217 218 220 218 212 206 204 204 206 207 207 206 206 206 205 204 203 202 201 201 200 200 199 199 199 197 192 189 188 186 183
191 201 205 203 189 182 225 224 207 215 252 251 266 275 271 242 114 176 199 186 192 189 195 213 234 238 227 208 204 197 183 185 179 180 185 181 184 187 183 181 180 183 188 191 192 193 195 198 199 202 207 211 212 212 214 215 213 213 214 213 213 215 217 217 216 217 219 219 219 217 211 207 205 205 206 207 209 208 207 206 205 203 203 202 202 201 200 199 198 197 194 191 188 187 187 185 183